Weather History for KBLV - May, 2013

Change the Weather History Date:

Monday, May 13, 2013

  Actual Average (KSTL) Record (KSTL)
Temperature  
Mean Temperature 54 °F 66 °F  
Max Temperature 70 °F 75 °F 91 °F (1915)
Min Temperature 39 °F 56 °F 40 °F (1971)
Degree Days  
Heating Degree Days 10 3  
Month to date heating degree days 46  
Since 1 July heating degree days 4502  
Cooling Degree Days 0 4  
Month to date cooling degree days 34  
Year to date cooling degree days 80  
Growing Degree Days 4 (Base 50)    
Moisture  
Dew Point 39 °F    
Average Humidity 67    
Maximum Humidity 100    
Minimum Humidity 27    
Precipitation  
Precipitation 0.00 in 0.15 in 1.70 in (1985)
Month to date precipitation 1.89  
Year to date precipitation 13.54  
Snow  
Snow 0.00 in 0.00 in 0.00 in (2014)
Month to date snowfall 0.0  
Since 1 July snowfall 17.7  
Snow Depth -    
Sea Level Pressure  
Sea Level Pressure 30.17 in    
Wind  
Wind Speed 2 mph (South)    
Max Wind Speed 8 mph    
Max Gust Speed -    
Visibility 10 miles    
Events      
T = Trace of Precipitation, MM = Missing Value Source: NWS Daily Summary

Daily Weather History Graph

Daily Weather History Graph

Search for Another Location

Airport or City:

Trip Planner

Search our weather history database for the weather conditions in past years. The results will help you decide how hot, cold, wet, or windy it might be!

Date:

Astronomy

May. 13, 2013 Rise Set
Actual Time 5:49 AM CDT 8:02 PM CDT
Civil Twilight 5:19 AM CDT 8:32 PM CDT
Nautical Twilight 4:43 AM CDT 9:08 PM CDT
Astronomical Twilight 4:03 AM CDT 9:48 PM CDT
Moon 8:35 AM CDT (5/13) 11:11 PM CDT (5/13)
Length of Visible Light 15h 12m
Length of Day
14h 13m
Waxing Crescent, 12% of the Moon is Illuminated
May 13
Waxing Crescent
May 17
First Quarter
May 24
Full
May 31
Last Quarter
Jun 8
New

Hourly Weather History & Observations

Time (CDT) Temp. Windchill Dew Point Humidity Pressure Visibility Wind Dir Wind Speed Gust Speed Precip Events Conditions
12:58 AM 42.4 °F - 38.1 °F 85% 30.18 in 10.0 mi Calm Calm - N/A   Clear
1:58 AM 41.4 °F - 39.9 °F 95% 30.19 in 10.0 mi Calm Calm - N/A   Clear
2:33 AM 41.0 °F - 37.4 °F 87% 30.18 in 9.0 mi Calm Calm - N/A   Clear
2:58 AM 40.1 °F - 38.3 °F 93% 30.19 in 9.0 mi Calm Calm - N/A   Clear
3:03 AM 41.0 °F - 39.2 °F 93% 30.18 in 10.0 mi WSW 1.2 mph - N/A   Clear
3:08 AM 41.0 °F - 39.2 °F 93% 30.18 in 9.0 mi Calm Calm - N/A   Clear
3:28 AM 41.0 °F - 39.2 °F 93% 30.18 in 10.0 mi SW 1.2 mph - N/A   Clear
3:53 AM 39.2 °F - 39.2 °F 100% 30.18 in 10.0 mi South 1.2 mph - N/A   Clear
3:58 AM 39.4 °F 37.2 °F 39.0 °F 99% 30.19 in 9.0 mi SSW 3.5 mph - N/A   Clear
4:48 AM 39.2 °F - 39.2 °F 100% 30.18 in 10.0 mi Calm Calm - N/A   Clear
4:58 AM 39.6 °F - 38.8 °F 97% 30.19 in 9.0 mi South 1.2 mph - N/A   Clear
5:28 AM 39.2 °F - 37.4 °F 93% 30.18 in 7.0 mi Calm Calm - N/A   Clear
5:58 AM 39.4 °F 36.1 °F 37.9 °F 95% 30.21 in 5.0 mi SW 4.6 mph - N/A   Clear
6:58 AM 43.9 °F - 40.3 °F 87% 30.22 in 7.0 mi Calm Calm - N/A   Clear
7:58 AM 52.0 °F - 41.9 °F 69% 30.23 in 10.0 mi West 1.2 mph - N/A   Clear
8:58 AM 59.4 °F - 37.6 °F 44% 30.24 in 10.0 mi SW 3.5 mph - N/A   Clear
9:58 AM 62.1 °F - 35.6 °F 37% 30.24 in 10.0 mi SW 6.9 mph - N/A   Clear
10:58 AM 63.9 °F - 35.8 °F 35% 30.24 in 10.0 mi SW 5.8 mph - N/A   Clear
11:58 AM 65.1 °F - 36.1 °F 34% 30.23 in 10.0 mi SSW 3.5 mph - N/A   Clear
12:58 PM 66.4 °F - 35.6 °F 32% 30.21 in 10.0 mi Variable 4.6 mph - N/A   Partly Cloudy
1:58 PM 68.0 °F - 34.9 °F 29% 30.19 in 10.0 mi SSE 5.8 mph - N/A   Clear
3:58 PM 70.3 °F - 34.7 °F 27% 30.14 in 10.0 mi Variable 3.5 mph - N/A   Clear
4:58 PM 70.5 °F - 38.8 °F 32% 30.12 in 10.0 mi Variable 3.5 mph - N/A   Clear
5:58 PM 70.2 °F - 41.5 °F 35% 30.10 in 10.0 mi South 8.1 mph - N/A   Clear
6:58 PM 67.8 °F - 43.0 °F 41% 30.09 in 10.0 mi SSE 8.1 mph - N/A   Clear
7:58 PM 63.5 °F - 43.3 °F 48% 30.09 in 10.0 mi ESE 4.6 mph - N/A   Clear
8:58 PM 59.4 °F - 45.0 °F 59% 30.09 in 10.0 mi SE 5.8 mph - N/A   Clear
9:58 PM 59.7 °F - 44.1 °F 56% 30.08 in 10.0 mi SSE 5.8 mph - N/A   Clear
10:58 PM 57.2 °F - 45.1 °F 64% 30.07 in 10.0 mi SE 4.6 mph - N/A   Clear
11:58 PM 56.7 °F - 44.4 °F 64% 30.06 in 10.0 mi South 4.6 mph - N/A   Clear